www.pogodaiklimat.ru

Погода и климат >> Архив погоды >> Иран >> Yazd


ПОГОДА в Yazd

  • Прогноз погоды в Yazd
  • Монитор погоды в Yazd
  • Климат города

АРХИВ ПОГОДЫ в Yazd

Время (UTC), дата Ветер
(напр.,м/с)
 
Видим.   Явления Облачность Т
(С)
Тd
(С)
f
(%)
Тe
(С)
Тes
(С)
Комфортность P
(гПа)
Po
(гПа)
Тmin
(С)
Tmax
(С)
R
(мм)
R24
(мм)
S
(см)
12 11.12 СЗ 1 12 км 1/0
[Ac trans]
+16.7 -20.7 6 +18 +19 1018.8 879.2
15 11.12 З 1 12 км ясно +9.2 -20.9 10 +10 +10 1021.5 879.5 +17.7
18 11.12 З 3 10 км ясно +7.5 -18.0 14 +6 +6 1021.2 880.5
21 11.12 З 4 10 км ясно +5.9 -16.0 19 +3 +3 1021.4 881.8
00 12.12 ЮЗ 2 10 км ясно +3.9 -17.2 20 +2 +2 1023.2 883.6
03 12.12 СЗ 2 10 км ясно +3.0 -14.2 27 +1 +1 1027.6 885.5 +2.0
06 12.12 СЗ 3 15 км ясно +6.9 -12.5 24 +5 +8 1029.1 887.3
09 12.12 СЗ 3 15 км ясно +11.1 -12.3 18 +10 +16 1026.1 885.3
12 12.12 СЗ 3 15 км ясно +12.0 -14.8 14 +11 +12 1025.1 884.1
15 12.12 СЗ 1 15 км 1/0
[Ci fib]
+7.5 -14.0 20 +8 +8 1027.8 885.2 +12.5
18 12.12 ЮЗ 2 15 км ясно +4.6 -15.3 22 +3 +3 1028.3 885.9
21 12.12 ЮВ 2 15 км ясно +3.3 -14.6 26 +1 +1 1027.3 885.3
00 13.12 ЮВ 1 12 км ясно +0.7 -15.5 29 0 0 1026.6 884.7
03 13.12 ЮВ 2 15 км ясно -0.1 -15.6 30 -3 -3 1028.2 884.8 -0.1
06 13.12 ЮВ 2 25 км ясно +5.9 -14.4 22 +5 +9 1028.2 885.6
09 13.12 С 1 30 км 1/0
[Ac As]
+12.3 -13.6 15 +13 +21 1023.9 883.1
12 13.12 С 2 40 км ясно +13.6 -13.6 14 +14 +15 1022.2 881.3
15 13.12 штиль 0 30 км ясно +8.0 -14.8 18 +8 +8 1024.3 881.6 +14.5
18 13.12 Ю 1 15 км ясно +4.2 -14.9 23 +4 +4 1024.3 882.1
21 13.12 ЮВ 1 15 км ясно +4.3 -13.0 27 +4 +4 1022.6 881.5
00 14.12 ЮВ 2 15 км ясно +2.5 -14.2 28 +1 +1 1021.8 881.3
03 14.12 ЮВ 2 15 км ясно +0.4 -14.8 31 -2 -2 1024.5 881.9 +0.1
06 14.12 ЮВ 3 30 км ясно +6.5 -13.9 22 +4 +8 1025.0 882.9
09 14.12 В 1 30 км ясно +13.8 -13.5 14 +15 +23 1020.5 880.8
12 14.12 СВ 1 30 км ясно +15.3 -11.4 15 +16 +18 1018.6 879.0
15 14.12 штиль 0 20 км ясно +9.1 -13.6 19 +9 +9 1021.4 879.5 +16.1
18 14.12 ЮЗ 1 30 км ясно +4.6 -15.6 21 +4 +4 1021.1 879.6
21 14.12 ЮЗ 1 30 км ясно +1.9 -15.1 27 +1 +1 1019.0 878.9
00 15.12 З 1 25 км 3/0
[Ci sp]
+3.6 -13.5 27 +3 +3 1018.1 878.8
03 15.12 З 3 25 км осадки на расстоянии 9/8 1350 м
[Sc Ac und Ci fib]
+2.7 -11.9 33 -0 -0 1021.4 880.0 +1.0
06 15.12 СЗ 1 20 км 6/0
[Ac trans Cs]
+5.6 -11.2 29 +5 +9 1024.1 882.0
09 15.12 штиль 0 20 км 9/1 1200 м
[Cu hum Ac trans Cs]
+10.2 -10.9 21 +10 +15 1021.5 880.2
12 15.12 С 1 15 км 9/1 1050 м
[Cu med, cong Ac trans Cs]
+12.7 -11.5 17 +13 +14 1019.5 879.4
15 15.12 штиль 0 12 км 6/1 1050 м
[Sc diur, vesp Ac trans Cs]
+9.3 -11.9 21 +9 +9 1022.2 880.8 +13.1
18 15.12 З 1 10 км 8/1 1050 м
[Sc diur, vesp Ac As Cs]
+7.4 -12.0 24 +8 +8 1022.7 881.3
21 15.12 штиль 0 10 км 8/1 1050 м
[Sc diur, vesp Ac As Cs]
+4.4 -12.6 28 +4 +4 1022.4 881.5
00 16.12 Ю 2 10 км 3/0
[Ci fib]
+3.4 -12.6 30 +2 +2 1022.3 881.8
03 16.12 Ю 2 10 км 6/1 1050 м
[Sc As trans Ci sp]
+4.8 -11.9 29 +3 +3 1023.8 882.7 +3.0
06 16.12 ЮВ 1 7000 м мгла 8/0
[Ac As Cs]
+9.0 -10.8 23 +9 +12 1025.6 884.7
09 16.12 СВ 1 7000 м мгла 9/0
[Ac As Cs]
+14.9 -4.0 27 +16 +21 1022.7 883.0
12 16.12 З 1 6000 м мгла 8/0
[Ac As Cs]
+15.2 -3.8 27 +16 +17 1021.9 882.2
15 16.12 штиль 0 7000 м мгла 8/0
[Ac As Cs]
+11.1 -7.7 26 +11 +11 1024.3 883.5 +15.7
18 16.12 ЮВ 1 8000 м мгла 4/0
[Ac As Cs]
+10.2 -2.1 42 +10 +10 1023.8 884.1
21 16.12 ЮЗ 1 10 км 5/0
[Ac As Ci sp]
+5.3 -6.4 43 +5 +5 1024.1 884.3
00 17.12 ЮВ 2 10 км ясно +4.8 -5.2 48 +3 +3 1024.1 884.3
03 17.12 ЮВ 1 10 км 1/0
[Ci fib]
+3.6 -5.6 51 +3 +3 1026.3 884.9 +3.6
06 17.12 ЮВ 2 8000 м мгла 1/1 1000 м
[Cu hum]
+9.9 -2.8 41 +9 +13 1026.1 886.1
09 17.12 ЮВ 1 12 км 1/1 1000 м
[Cu hum]
+15.8 -1.6 30 +17 +24 1023.3 884.0
12 17.12 С 2 18 км 1/1 1000 м
[Cu hum]
+16.7 -1.6 29 +17 +18 1021.4 882.4
15 17.12 З 1 15 км 1/1 1200 м
[Sc diur, vesp]
+11.2 -3.4 36 +12 +12 1024.6 883.6 +17.5
18 17.12 Ю 1 12 км ясно +8.4 -4.0 41 +8 +8 1024.3 884.2
21 17.12 ЮВ 2 12 км ясно +8.0 -2.5 47 +7 +7 1022.9 884.0
00 18.12 ЮВ 2 12 км ясно +6.1 -3.6 50 +4 +4 1022.7 883.8
03 18.12 ЮВ 2 12 км ясно +4.9 -3.4 55 +3 +3 1025.7 884.9 +3.5
06 18.12 В 2 12 км ясно +10.2 -2.7 40 +9 +13 1026.1 885.8
09 18.12 Ю 1 15 км 1/1 1350 м
[Cu hum]
+16.9 -2.6 26 +18 +25 1022.2 883.9

 

Местоположение метеостанции Yazd (Иран): широта 31.90 долгота 54.28 высота над уровнем моря 1237 м.

В архиве по умолчанию представлена погода в Yazd за последнюю неделю. Архивные данные за месяц целиком и за предыдущие месяцы, начиная с января 2011 года, Вы можете получить, выбрав интересующий диапазон дат из раскрывающегося списка и нажав кнопку "Ввод!".

Внимание! Время в таблицах - всемирное. Для получения местного времени необходимо прибавить поправку, которая в Yazd равна 3.5 ч.

Смотрите также архив погоды в соседних городах и на ближайших метеорологических станциях:

Погода в Abadeh (Иран) (172 км)
Погода в Khor (Иран) (222 км)
Погода в Esfahan (Иран) (254 км)
Погода в Yasuj (Иран) (291 км)
Погода в Sirjan (Иран) (303 км)
Погода в Tabas (Иран) (311 км)
Погода в Shiraz (Иран) (312 км)
Погода в Kerman (Иран) (315 км)
Погода в Shahre-Kord (Иран) (326 км)
Погода в Fasa (Иран) (331 км)

Пояснения к столбцам:

Ветер - указаны скорость ветра в м/с - средняя за 10 мин, порывы в срок и между сроками (в фигурных скобках) и направление, откуда дует ветер: С - северный, СВ - северо-восточный, В - восточный, ЮВ - юго-восточный, Ю - южный, ЮЗ - юго-западный, З - западный, СЗ - северо-западный.
Видимость - горизонтальная дальность видимости в метрах или километрах. При видимости от 1 до 10 км при отсутствии осадков обычно наблюдается дымка, при ухудшении видимости до 1 км и менее - туман. В сухую погоду видимость может ухудшаться дымом, пылью или мглою.
Явления - указаны атмосферные явления, наблюдавшиеся в срок или в последний час перед сроком; фигурными скобками обозначены явления, наблюдавшиеся между сроками (за 1-3 часа до срока); квадратными скобками обозначены град или гололедные отложения с указанием их диаметра в мм.
Облачность - указаны через наклонную черту общая и нижняя облачность в баллах и высота нижней границы облаков в метрах; квадратными скобками обозначены формы облаков: Ci - перистые, Cs - перисто-слоистые, Cc - перисто-кучевые, Ac - высококучевые, As - высокослоистые, Sc - слоисто-кучевые, Ns - слоисто-дождевые, Cu - кучевые, Cb - кучево-дождевые. Подробнее классификацию облаков см. в Атласе облаков (PDF).
T - Температура воздуха - температура, измеренная на высоте 2 м над землей.
Td - Температура точки росы - температура, при понижении до которой содержащийся в воздухе водяной пар достигнет насыщения.
f - Относительная влажность воздуха - влажноcть воздуха, измеренная на высоте 2 м над землей.
Te - Эффективная температура - температура, которую ощущает одетый по сезону человек в тени. Характеристика душности погоды. При расчете учитывается влияние влажности воздуха и скорости ветра на теплоощущения человека.
Tes - Эффективная температура на солнце - температура, которую ощущает человек, с поправкой на солнечный нагрев. Характеристика знойности погоды. Зависит от высоты солнца над горизонтом, облачности и скорости ветра. Ночью, в пасмурную погоду, а также при ветре 12 м/с и более поправка равна нулю.
P - Атмосферное давление - приведенное к уровню моря атмосферное давление.
Po - Атмосферное давление - измеренное на уровне метеостанции атмосферное давление.
Tmin - Минимальная температура - минимум температуры воздуха на высоте 2 м над землей.
Tmax - Максимальная температура - максимум температуры воздуха на высоте 2 м над землей.
R - Количество осадков - Количество выпавших осадков за период времени, мм. При наведении курсора мыши на число - период времени, за который выпало указанное количество осадков.
R24 - Количество осадков - Количество выпавших осадков за 24 часа, мм.
S - Снежный покров - Высота снежного покрова, см. При наведении курсора мыши на число - состояние снежного покрова и степень покрытия местности в баллах.